Yellowstone National Park, WY

1:37 PM MST on February 11, 2016 (GMT -0700)
Yellowstone

Weather History for KP60 - February, 2014

Change the Weather History Date:

Friday, February 7, 2014

  Actual Average Record
Temperature  
Mean Temperature 10 °F 13 °F  
Max Temperature 21 °F 25 °F 42 °F (2007)
Min Temperature -1 °F 1 °F -21 °F (2003)
Degree Days  
Heating Degree Days 55 52  
Month to date heating degree days 473 364  
Since 1 July heating degree days 7061 6895  
Cooling Degree Days 0 0  
Month to date cooling degree days 0 0  
Year to date cooling degree days 0 0  
Moisture  
Dew Point 5 °F    
Average Humidity 76    
Maximum Humidity 95    
Minimum Humidity 56    
Precipitation  
Precipitation 0.23 in 0.05 in 0.23 in (2014)
Month to date precipitation 0.49 0.34  
Year to date precipitation 2.40 2.45  
Sea Level Pressure  
Sea Level Pressure 29.92 in    
Wind  
Wind Speed 3 mph (WSW)    
Max Wind Speed 16 mph    
Max Gust Speed 28 mph    
T = Trace of Precipitation, MM = Missing Value Source: NWS Daily Summary

Daily Weather History Graph

Daily Weather History Graph

Search for Another Location

Airport or City:

Trip Planner

Search our weather history database for the weather conditions in past years. The results will help you decide how hot, cold, wet, or windy it might be!

Date:

Astronomy

Feb. 07, 2014 Rise Set
Actual Time 7:32 AM MST 5:39 PM MST
Civil Twilight 7:02 AM MST 6:09 PM MST
Nautical Twilight 6:27 AM MST 6:44 PM MST
Astronomical Twilight 5:54 AM MST 7:18 PM MST
Moon 11:50 AM MST (2/7) 1:54 AM MST (2/7)
Length of Visible Light 11h 07m
Length of Day
10h 06m
First Quarter, 60% of the Moon is Illuminated
Feb 7
First Quarter
Feb 14
Full
Feb 22
Last Quarter
Mar 1
New
Mar 8
First Quarter

Hourly Weather History & Observations

Time (MST) Temp. Windchill Dew Point Humidity Pressure Visibility Wind Dir Wind Speed Gust Speed Precip Events Conditions
12:56 AM -0.0 °F - -4.0 °F 83% 30.07 in - Calm Calm - 0.01 in   Unknown
1:56 AM -0.0 °F - -4.0 °F 83% 30.04 in - Calm Calm - N/A   Unknown
2:56 AM 1.9 °F - -2.0 °F 83% 29.97 in - Calm Calm - 0.01 in   Unknown
3:56 AM 1.9 °F - -0.9 °F 88% 29.95 in - Calm Calm - 0.01 in   Unknown
4:56 AM 3.0 °F - -0.0 °F 87% 29.95 in - Calm Calm - N/A   Unknown
5:56 AM 3.9 °F - 1.0 °F 88% 29.95 in - Calm Calm - 0.02 in   Unknown
6:56 AM 5.0 °F - 1.0 °F 84% 29.93 in - Calm Calm - 0.01 in   Unknown
7:56 AM 6.1 °F - 3.0 °F 87% 29.92 in - Calm Calm - 0.03 in   Unknown
8:56 AM 12.0 °F 5.9 °F 9.0 °F 88% 29.88 in - ESE 3.5 mph - 0.02 in   Unknown
9:56 AM 12.0 °F - 9.0 °F 88% 29.88 in - Calm Calm - 0.01 in   Unknown
10:56 AM 15.1 °F 4.2 °F 10.9 °F 84% 29.87 in - West 8.1 mph - 0.03 in   Unknown
11:56 AM 16.0 °F 8.8 °F 10.0 °F 77% 29.87 in - Variable 4.6 mph - 0.04 in   Unknown
12:56 PM 19.0 °F 9.0 °F 7.0 °F 59% 29.83 in - WNW 8.1 mph - 0.01 in   Unknown
1:56 PM 18.0 °F 6.1 °F 6.1 °F 60% 29.84 in - WSW 10.4 mph 21.9 mph N/A   Unknown
2:56 PM 17.1 °F 5.0 °F 8.1 °F 68% 29.84 in - West 10.4 mph 17.3 mph N/A   Unknown
3:56 PM 15.1 °F 7.7 °F 10.0 °F 80% 29.88 in - Variable 4.6 mph - 0.01 in   Unknown
4:56 PM 12.0 °F 2.7 °F 6.1 °F 77% 29.91 in - Variable 5.8 mph - N/A   Unknown
5:56 PM 10.0 °F - 5.0 °F 80% 29.95 in - Calm Calm - N/A   Unknown
6:56 PM 10.9 °F 4.7 °F 5.0 °F 77% 29.96 in - Variable 3.5 mph - N/A   Unknown
7:56 PM 10.0 °F 3.6 °F 5.0 °F 80% 29.96 in - Variable 3.5 mph - N/A   Unknown
8:56 PM 10.9 °F 4.7 °F 6.1 °F 81% 29.92 in - Variable 3.5 mph - N/A   Unknown
9:56 PM 12.0 °F - 8.1 °F 84% 29.92 in - Calm Calm - N/A   Unknown
10:56 PM 10.9 °F - 8.1 °F 88% 29.88 in - Calm Calm - N/A   Unknown
11:56 PM 10.9 °F - 8.1 °F 88% 29.86 in - Calm Calm - 0.02 in   Unknown